Tracking 30261 objects as of 18-Feb-2025
HD Live streaming from Space Station
objects crossing your sky now

STARLINK-5225

Track STARLINK-5225 now!
10-day predictions
STARLINK-5225 is classified as:


NORAD ID: 54063
Int'l Code: 2022-136N
Perigee: 545.8 km
Apogee: 547.9 km
Inclination: 53.2 °
Period: 95.4 minutes
Semi major axis: 6917 km
RCS: Unknown
Launch date: October 20, 2022
Source: United States (US)
Launch site: AIR FORCE EASTERN TEST RANGE (AFETR)
Your satellite tracking list
Your tracking list is empty




NASA's NSSDC Master Catalog

Two Line Element Set (TLE):
1 54063U 22136N   25049.02500185  .00000002  00000-0  18209-4 0  9999
2 54063  53.2177 270.8786 0001519  92.6637 267.4529 15.08841152129251
Source of the keplerian elements: AFSPC